When you browse on this site, cookies collect data to enhance your experience and personalize the content and advertising you see.
Visit our Privacy Policy to learn more. By continuing to use the site, you agree to this use of cookies and data.
  • In Schweiz
  • Länderverzeichnis
  • Für 7 Tage
  • Wassertemperatur
  • Wetterkarte
  • Widgets
  • user-avatar
    Anmelden

    Stündliche Wetter Sylchet

    Heute, 22 August, Donnerstag

    Zeit Temperatur Niederschläge Wind Luftdruck Luftfeuchtigkeit
    00:00 +30°C° 0 mm 1 m/S 751 mmHg 77%
    01:00 +30°C° 0 mm 1 m/S 750 mmHg 78%
    02:00 +30°C° 0 mm 1 m/S 750 mmHg 80%
    03:00 +29°C° 0 mm 2 m/S 750 mmHg 82%
    04:00 +29°C° 0.1 mm 2 m/S 750 mmHg 83%
    05:00 +29°C° 0.1 mm 2 m/S 750 mmHg 85%
    06:00 +29°C° 0.1 mm 2 m/S 750 mmHg 86%
    07:00 +30°C° 0 mm 1 m/S 750 mmHg 81%
    08:00 +32°C° 0 mm 1 m/S 751 mmHg 76%
    09:00 +33°C° 0 mm 1 m/S 751 mmHg 70%
    10:00 +34°C° 0.3 mm 1 m/S 751 mmHg 67%
    11:00 +34°C° 0.3 mm 0 m/S 750 mmHg 64%
    12:00 +35°C° 0.3 mm 0 m/S 750 mmHg 60%
    13:00 +37°C° 0.1 mm 1 m/S 749 mmHg 58%
    14:00 +37°C° 0.1 mm 1 m/S 749 mmHg 57%
    15:00 +37°C° 0.1 mm 1 m/S 748 mmHg 55%
    16:00 +36°C° 0.7 mm 2 m/S 748 mmHg 63%
    17:00 +35°C° 0.7 mm 3 m/S 748 mmHg 70%
    18:00 +33°C° 0.7 mm 3 m/S 748 mmHg 78%
    19:00 +31°C° 1.2 mm 3 m/S 749 mmHg 81%
    20:00 +32°C° 1.2 mm 4 m/S 750 mmHg 83%
    21:00 +30°C° 1.2 mm 4 m/S 751 mmHg 86%
    22:00 +29°C° 1.9 mm 3 m/S 751 mmHg 88%
    23:00 +29°C° 1.9 mm 3 m/S 751 mmHg 90%

    Morgen, 23 August, Freitag

    Zeit Temperatur Niederschläge Wind Luftdruck Luftfeuchtigkeit
    00:00 +28°C° 1.9 mm 3 m/S 751 mmHg 92%
    01:00 +28°C° 2 mm 3 m/S 751 mmHg 92%
    02:00 +28°C° 2 mm 3 m/S 751 mmHg 92%
    03:00 +28°C° 2 mm 3 m/S 751 mmHg 92%
    04:00 +28°C° 1.2 mm 3 m/S 751 mmHg 93%
    05:00 +28°C° 1.2 mm 2 m/S 751 mmHg 94%
    06:00 +27°C° 1.2 mm 2 m/S 751 mmHg 95%
    07:00 +28°C° 2.2 mm 2 m/S 752 mmHg 94%
    08:00 +28°C° 2.2 mm 2 m/S 752 mmHg 94%
    09:00 +28°C° 2.2 mm 1 m/S 753 mmHg 94%
    10:00 +28°C° 7.4 mm 1 m/S 752 mmHg 94%
    11:00 +28°C° 7.4 mm 1 m/S 752 mmHg 94%
    12:00 +26°C° 7.4 mm 0 m/S 752 mmHg 94%
    13:00 +29°C° 0.2 mm 1 m/S 751 mmHg 91%
    14:00 +29°C° 0.2 mm 1 m/S 751 mmHg 88%
    15:00 +30°C° 0.2 mm 1 m/S 750 mmHg 85%
    16:00 +30°C° 0.1 mm 1 m/S 750 mmHg 86%
    17:00 +30°C° 0.1 mm 1 m/S 750 mmHg 87%
    18:00 +28°C° 0.1 mm 0 m/S 750 mmHg 88%
    19:00 +29°C° 1.6 mm 1 m/S 751 mmHg 89%
    20:00 +29°C° 1.6 mm 1 m/S 752 mmHg 90%
    21:00 +28°C° 1.6 mm 1 m/S 753 mmHg 91%
    22:00 +28°C° 1.9 mm 1 m/S 752 mmHg 92%
    23:00 +28°C° 1.9 mm 2 m/S 752 mmHg 94%

    übermorgen, 24 August, Samstag

    Zeit Temperatur Niederschläge Wind Luftdruck Luftfeuchtigkeit
    00:00 +27°C° 1.9 mm 2 m/S 752 mmHg 95%
    01:00 +27°C° 1 mm 2 m/S 752 mmHg 95%
    02:00 +27°C° 1 mm 1 m/S 752 mmHg 95%
    03:00 +27°C° 1 mm 1 m/S 751 mmHg 95%
    04:00 +27°C° 1.4 mm 1 m/S 752 mmHg 95%
    05:00 +27°C° 1.4 mm 1 m/S 752 mmHg 96%
    06:00 +25°C° 1.4 mm 0 m/S 752 mmHg 96%
    07:00 +27°C° 5.4 mm 1 m/S 752 mmHg 94%
    08:00 +28°C° 5.4 mm 1 m/S 753 mmHg 93%
    09:00 +28°C° 5.4 mm 1 m/S 753 mmHg 92%
    10:00 +29°C° 1.7 mm 1 m/S 753 mmHg 88%
    11:00 +31°C° 1.7 mm 1 m/S 752 mmHg 83%
    12:00 +32°C° 1.7 mm 1 m/S 752 mmHg 79%
    13:00 +32°C° 2.6 mm 1 m/S 751 mmHg 77%
    14:00 +32°C° 2.6 mm 1 m/S 750 mmHg 76%
    15:00 +32°C° 2.6 mm 1 m/S 749 mmHg 75%
    16:00 +32°C° 0.7 mm 2 m/S 749 mmHg 78%
    17:00 +31°C° 0.7 mm 2 m/S 749 mmHg 82%
    18:00 +30°C° 0.7 mm 2 m/S 749 mmHg 85%
    19:00 +29°C° 0.2 mm 2 m/S 750 mmHg 87%
    20:00 +29°C° 0.2 mm 2 m/S 751 mmHg 89%
    21:00 +28°C° 0.2 mm 2 m/S 752 mmHg 91%
    22:00 +28°C° 0 mm 2 m/S 752 mmHg 91%
    23:00 +27°C° 0 mm 1 m/S 752 mmHg 92%

    25 August, Sonntag

    Zeit Temperatur Niederschläge Wind Luftdruck Luftfeuchtigkeit
    00:00 +27°C° 0 mm 1 m/S 752 mmHg 93%
    01:00 +27°C° 0 mm 1 m/S 752 mmHg 92%
    02:00 +27°C° 0 mm 2 m/S 751 mmHg 92%
    03:00 +27°C° 0 mm 2 m/S 751 mmHg 92%
    04:00 +27°C° 0 mm 2 m/S 751 mmHg 92%
    05:00 +27°C° 0 mm 2 m/S 751 mmHg 92%
    06:00 +27°C° 0 mm 2 m/S 752 mmHg 92%
    07:00 +27°C° 0 mm 2 m/S 752 mmHg 90%
    08:00 +28°C° 0 mm 2 m/S 753 mmHg 88%
    09:00 +29°C° 0 mm 2 m/S 753 mmHg 87%
    10:00 +30°C° 0.2 mm 2 m/S 752 mmHg 78%
    11:00 +32°C° 0.2 mm 2 m/S 752 mmHg 69%
    12:00 +35°C° 0.2 mm 2 m/S 752 mmHg 61%
    13:00 +36°C° 0.1 mm 2 m/S 751 mmHg 59%
    14:00 +35°C° 0.1 mm 1 m/S 750 mmHg 58%
    15:00 +36°C° 0.1 mm 1 m/S 750 mmHg 56%
    16:00 +34°C° 0 mm 1 m/S 750 mmHg 62%
    17:00 +34°C° 0 mm 2 m/S 750 mmHg 68%
    18:00 +32°C° 0 mm 2 m/S 750 mmHg 73%
    19:00 +31°C° 0 mm 2 m/S 750 mmHg 76%
    20:00 +30°C° 0 mm 2 m/S 751 mmHg 79%
    21:00 +29°C° 0 mm 2 m/S 752 mmHg 82%
    22:00 +29°C° 0.2 mm 2 m/S 752 mmHg 84%
    23:00 +29°C° 0.2 mm 2 m/S 752 mmHg 85%

    26 August, Montag

    Zeit Temperatur Niederschläge Wind Luftdruck Luftfeuchtigkeit
    00:00 +29°C° 0.2 mm 1 m/S 752 mmHg 86%
    01:00 +28°C° 0.2 mm 1 m/S 752 mmHg 87%
    02:00 +28°C° 0.2 mm 1 m/S 751 mmHg 88%
    03:00 +26°C° 0.2 mm 0 m/S 751 mmHg 89%
    04:00 +28°C° 0.1 mm 1 m/S 751 mmHg 89%
    05:00 +28°C° 0.1 mm 1 m/S 751 mmHg 90%
    06:00 +28°C° 0.1 mm 1 m/S 751 mmHg 91%
    07:00 +29°C° 0 mm 1 m/S 751 mmHg 85%
    08:00 +31°C° 0 mm 1 m/S 752 mmHg 79%
    09:00 +32°C° 0 mm 2 m/S 752 mmHg 72%
    10:00 +34°C° 0.1 mm 1 m/S 751 mmHg 68%
    11:00 +35°C° 0.1 mm 1 m/S 751 mmHg 63%
    12:00 +36°C° 0.1 mm 1 m/S 750 mmHg 58%
    13:00 +37°C° 0.1 mm 1 m/S 750 mmHg 57%
    14:00 +37°C° 0.1 mm 1 m/S 749 mmHg 56%
    15:00 +37°C° 0.1 mm 1 m/S 748 mmHg 55%
    16:00 +35°C° 0 mm 1 m/S 748 mmHg 61%
    17:00 +35°C° 0 mm 2 m/S 748 mmHg 67%
    18:00 +34°C° 0 mm 2 m/S 748 mmHg 73%
    19:00 +32°C° 0.2 mm 2 m/S 749 mmHg 76%
    20:00 +31°C° 0.2 mm 2 m/S 750 mmHg 79%
    21:00 +30°C° 0.2 mm 2 m/S 750 mmHg 82%
    22:00 +30°C° 0 mm 3 m/S 750 mmHg 84%
    23:00 +29°C° 0 mm 3 m/S 750 mmHg 87%

    27 August, Dienstag

    Zeit Temperatur Niederschläge Wind Luftdruck Luftfeuchtigkeit
    00:00 +29°C° 0 mm 3 m/S 750 mmHg 89%
    01:00 +29°C° 0.1 mm 2 m/S 750 mmHg 89%
    02:00 +28°C° 0.1 mm 2 m/S 750 mmHg 90%
    03:00 +28°C° 0.1 mm 1 m/S 750 mmHg 91%
    04:00 +28°C° 0 mm 1 m/S 750 mmHg 91%
    05:00 +28°C° 0 mm 1 m/S 750 mmHg 91%
    06:00 +26°C° 0 mm 0 m/S 750 mmHg 90%
    07:00 +30°C° 0 mm 1 m/S 750 mmHg 86%
    08:00 +31°C° 0 mm 1 m/S 750 mmHg 81%
    09:00 +32°C° 0 mm 1 m/S 750 mmHg 76%
    10:00 +33°C° 0 mm 1 m/S 750 mmHg 70%
    11:00 +35°C° 0 mm 1 m/S 750 mmHg 64%
    12:00 +35°C° 0 mm 0 m/S 749 mmHg 59%
    13:00 +37°C° 0 mm 1 m/S 748 mmHg 58%
    14:00 +37°C° 0 mm 1 m/S 748 mmHg 57%
    15:00 +37°C° 0 mm 1 m/S 747 mmHg 55%
    16:00 +36°C° 0 mm 1 m/S 747 mmHg 60%
    17:00 +35°C° 0 mm 1 m/S 747 mmHg 64%
    18:00 +34°C° 0 mm 1 m/S 747 mmHg 68%
    19:00 +34°C° 0 mm 2 m/S 748 mmHg 71%
    20:00 +32°C° 0 mm 2 m/S 748 mmHg 75%
    21:00 +32°C° 0 mm 2 m/S 749 mmHg 78%
    22:00 +31°C° 0.6 mm 2 m/S 749 mmHg 81%
    23:00 +30°C° 0.6 mm 2 m/S 749 mmHg 83%
    Mehr zeigen